Showing default

EUTE 65W, 41382

Orbit data source: Space-Track

EUTE 65W, 41382 is a payload satellite owned by EutelsatSA (FR) in GEO that was launched on Wed, 09 Mar 2016 UTC via an ARIANE 5ECA launch vehicle from the French Guiana (FRGUI). Payload-class satellites include a variety of spacecraft equipped with specific instruments for various scientific and technological missions. These include communications satellites like Starlink; space stations such as the ISS; scientific satellites like the Hubble; Earth observation satellites from companies like Planet Labs, Umbra, and HawkEye 360; GPS; miniature CubeSats for education and research; and military/defense satellites.

Loading next visibility...
Identifier
41382, 2016-014A
Orbit
GEO
Last TLE update
15 hours ago
Origin
Manufacturer
SS/Loral (MDA)
Mission
Operational Commercial Communications
Bus & Motor
SSL-1300, R-4D?
Mass
6,564 kg wet, ~3,500 kg dry
Launch date (UTC)
2016-03-09 (9 years ago)
Launch vehicle
ARIANE 5ECA
Launch site
French Guiana (FRGUI)
Object type
Payload
Rocket body
Debris
Shape & HBR
Box + 2 Pan, 26 m
Radar Cross Section
49.949 m², Large (>1 m²)

Expand to show TLE details & history

TLE from 15 hours ago
0 EUTE 65W
1 41382U 16014A   25181.67674006 -.00000276  00000-0  00000-0 0  9999
2 41382   0.0580 327.6093 0002364 132.6810 357.1052  1.00270758 34010
Epoch: 2025-06-30T16:14Z
TLE epoch observation values (Epoch: 2025-06-30T16:14:30.341Z)
Latitude
0.06141°
Longitude
-65.201°
Altitude
35,776.368 km
Speed
3.075 km/s
True Right ascension
06h 29m 38s
True Declination
0° 03' 41"
Sunlit
Object was in daylight at epoch
Visualization orbit readout
Latitude
-0.01983°
Longitude
158.97909°
Altitude
35,793.959 km
Speed
3.074 km/s
Apparent Right ascension
21h 45m 03s
Apparent Declination
-6° 03' 03"
Sunlit
Object is in daylight
Visualization observer readout
Local Sidereal Time
18:46:46
Azimuth
127.494° SE
Elevation
28.404°
Doppler factor
1
Orbital elements
Apogee altitude
35,797.921 km
Perigee altitude
35,777.985 km
Semi-major axis
42,166.09 km
Eccentricity
0.00024
Inclination
0.058°
RAAN
327.6093°
Arg. of periapsis
132.681°
True anomaly
Unknown
Mean anomaly
357.1052°
Eccentric anomaly
Unknown
Mean motion
0.25067 °/min
Orbital period
1,436.16 mins
BSTAR
0
Loading historical data...
41382 neighbors
Loading maneuver chart data...
Loading SW <> Apogee altitude chart data...
Loading historical data...
Loading historical data...
Loading historical data...
Loading historical data...
Loading historical data...
Loading historical data...
Loading historical data...
Other satellites on launch #14 in the year 2016 (2016-03-09 UTC)

EUTE 65W Visibility forecast

Observer location: undefined°, undefined°

Span
Click to sort rows by Start time (UTC) header in descending order
Start Az.
Max El. time (UTC)
Max El. Az.
Max El.
End time (UTC)
End Az.
1440 mins2025-07-01 07:08:51.563Z127.508° SE2025-07-01 13:59:51.563Z127.441° SE25.485°2025-07-02 07:08:51.563Z127.514° SE
|